Location: Cr�pey
(48.5282°N, 5.9703°E)
Time: 22:34:06
(UTC+00:00)

Daily predictions for brighter satellites

Satellite Brightness Start Highest point End
(mag) Time Altitude Azimuth Time Altitude Azimuth Time Altitude Azimuth
BREEZE-M (TANK) 4.5 17:34:53 10° WNW 17:39:18 86° SSW 17:59:39 10° ESE
Cosmos 2263 Rocket 2.9 17:53:14 10° SW 17:58:44 59° WNW 18:04:18 10° NNE
USA 116 4.3 17:56:32 10° NNE 17:59:56 35° E 18:03:43 10° SSE
Cosmos 1842 4.4 17:57:59 10° NNW 18:01:45 50° W 18:05:30 10° S
Cosmos 1939 Rocket 3.5 17:58:15 10° S 18:02:22 64° W 18:06:30 10° NNW
Cosmos 1844 Rocket 3.1 17:58:12 10° S 18:03:18 38° ESE 18:08:27 10° NE
Cosmos 1707 2.7 18:00:55 10° N 18:04:45 65° E 18:08:32 10° SSE
Cosmos 372 Rocket 4.0 17:59:57 10° S 18:05:08 68° ESE 18:10:20 10° NNE
Cosmos 1626 4.2 18:04:50 10° NE 18:05:54 11° ENE 18:06:57 10° E
NOSS 3-2 (C) 4.1 17:58:52 10° NW 18:06:11 66° NE 18:14:31 10° SE
Cosmos 1844 4.2 18:05:38 10° S 18:10:46 36° ESE 18:15:52 10° NE
ISS -3.6 18:07:48 10° WSW 18:11:11 76° NNW 18:14:33 10° ENE
Cosmos 2034 Rocket 4.4 18:05:26 10° SSE 18:11:19 42° E 18:17:12 10° NNE
NOSS 3-4 (A) 4.4 18:07:47 10° SSE 18:12:12 22° ESE 18:16:48 10° ENE
NOSS 3-4 (C) 4.4 18:07:55 10° SSE 18:12:19 22° ESE 18:16:54 10° ENE
USA 186 3.4 18:11:09 10° ESE 18:13:29 19° ENE 18:15:52 10° NNE
Lacrosse 4 Rocket 3.6 18:12:37 10° NNE 18:13:57 11° NNE 18:15:18 10° NE
Meteor 1-12 Rocket 4.3 18:08:50 10° S 18:14:36 61° E 18:20:17 10° NNE
Cosmos 1300 Rocket 3.6 18:15:33 10° S 18:19:54 61° E 18:24:18 10° NNE
Okean 1 Rocket 4.1 18:19:39 10° SE 18:23:16 25° E 18:26:54 10° NNE
Sich 1 Rocket 3.8 18:19:43 10° SSW 18:24:14 79° W 18:28:50 10° N
NOSS 2-2 (E) 4.3 18:21:44 10° WSW 18:25:11 46° NW 18:29:14 10° NE
CENTAUR R/B 3.2 18:17:18 10° NW 18:25:16 77° NE 18:34:05 10° SE
Cosmos 2298 Rocket 4.0 18:21:07 10° SSW 18:26:25 70° ESE 18:31:44 10° NNE
Cosmos 1833 Rocket 3.9 18:21:54 10° N 18:26:33 25° NE 18:30:12 14° E
Resurs 01 Rocket 3.6 18:25:52 11° ENE 18:27:13 12° NE 18:29:00 10° NNE
CSL-04 Debris 4.2 18:25:09 10° SSE 18:30:32 88° WSW 18:35:59 10° NNW
CSL-04 Rocket 3.7 18:27:02 10° SSE 18:32:30 89° WSW 18:38:04 10° NNW
Cosmos 1025 Rocket 3.1 18:29:45 10° N 18:34:10 88° W 18:38:34 10° S
Cosmos 1766 4.3 18:31:03 10° SE 18:34:15 24° E 18:37:28 10° NE
Okean 2 Rocket 3.1 18:29:57 10° S 18:34:26 86° ESE 18:38:56 10° N
ATLAS 2AS CENTAUR R/B 3.5 18:27:35 10° S 18:34:34 36° ESE 18:41:33 10° NE
NOSS 2-2 (D) 4.2 18:31:36 10° WSW 18:35:02 46° NW 18:39:01 10° NE
YAOGAN 1 3.4 18:30:54 10° S 18:35:09 55° W 18:39:25 10° NNW
ATLAS 3B R/B 3.3 18:31:04 10° NW 18:37:29 42° NE 18:42:35 17° E
SWAS 4.5 18:35:49 10° NNW 18:40:08 86° WSW 18:44:24 10° SSE
Abrixas rocket 2.2 18:38:00 10° W 18:40:47 52° SSW 18:42:11 24° SE
CREW DRAGON DEMO-1 DEB 2.9 18:39:40 10° WNW 18:42:41 66° SSW 18:44:16 25° SE
Cosmos 1536 Rocket 3.6 18:39:28 10° N 18:43:57 88° E 18:48:26 10° S
Cosmos 1125 Rocket 3.5 18:41:48 10° S 18:47:03 66° ESE 18:52:21 10° NNE
SJ-6B 3.2 18:48:31 23° SE 18:50:23 39° ENE 18:53:58 10° N
CZ-4 R/B 3.5 18:49:09 10° SSW 18:52:52 30° W 18:56:34 10° NNW
Cosmos 2150 Rocket 4.2 18:48:36 10° SSW 18:54:00 78° WNW 18:59:31 10° NNE
USA 238 DEB 4.4 18:47:25 10° NW 18:54:30 60° WSW 19:01:51 10° SSE
USA 238 4.3 18:47:32 10° NW 18:54:37 61° WSW 19:01:58 10° SSE
CZ-2C R/B 3.9 18:49:37 10° S 18:54:54 56° W 19:00:29 10° NNW
Cosmos 1464 Rocket 4.2 18:49:16 10° SSW 18:55:24 73° W 19:01:38 10° N
Cosmos 1674 2.6 18:52:28 10° N 18:56:21 83° E 19:00:11 10° S
Cosmos 2026 Rocket 4.2 18:50:51 10° N 18:57:03 50° ENE 19:02:16 15° SSE
Cosmos 1092 Rocket 4.0 18:51:10 10° N 18:57:18 63° ENE 19:03:27 10° SSE
Cosmos 2285 Rocket 3.9 18:51:33 10° S 18:57:47 66° ESE 19:04:04 10° NNE
MOS 1 Rocket 3.1 18:58:21 10° NNE 19:02:46 83° WNW 19:07:02 10° SSW
FREGAT/IRIS 3.0 19:04:41 38° NE 19:04:41 38° NE 19:06:41 10° N
TSX-5 4.1 19:05:10 10° S 19:08:54 49° ESE 19:13:41 10° NE
ARGOS 3.5 19:05:06 10° S 19:10:26 67° WSW 19:15:50 10° NNW
CZ-2C R/B 2.7 19:07:29 10° NNE 19:13:01 60° E 19:18:33 10° S
Cosmos 1340 Rocket 3.4 19:15:11 36° ENE 19:15:11 36° ENE 19:18:23 10° NNE
Cosmos 2279 Rocket 4.5 19:12:59 26° SE 19:15:38 37° E 19:21:17 10° NNE
Cosmos 1733 3.1 19:13:48 20° S 19:16:19 61° E 19:20:07 10° NNE
MOS 1 4.2 19:13:05 15° SSE 19:17:49 80° ENE 19:23:33 10° NNW
Lacrosse 5 rocket 2.9 19:14:57 10° NW 19:18:52 30° NNE 19:20:43 23° NE
Cosmos 2082 Rocket 3.0 19:14:41 10° NNW 19:19:47 34° NE 19:21:17 29° E
DMSP B5D2-2 4.0 19:17:36 10° NNE 19:22:52 62° E 19:28:05 10° S
BREEZE-M DEB (TANK) 4.2 19:19:37 10° W 19:22:55 37° SSW 19:27:36 20° SSE
BREEZE-M R/B 3.5 19:14:01 10° WSW 19:23:34 75° SSE 19:24:25 49° E
OBJECT-B 1.4 19:28:48 46° NNE 19:28:48 46° NNE 19:31:21 10° N
Cosmos 1805 3.5 19:24:21 10° SSW 19:28:15 69° WNW 19:32:10 10° N
Ariane Rocket 3.2 19:28:06 15° S 19:32:17 69° WSW 19:37:23 10° NNW
SL-08 RB Rocket 4.4 19:27:56 10° S 19:32:24 53° W 19:36:51 10° NNW
H-2A R/B 3.7 19:29:31 10° SSW 19:33:58 32° W 19:38:34 10° NNW
Cosmos 1269 Rocket 4.2 19:31:22 10° NNW 19:36:40 69° WSW 19:39:33 27° S
Cosmos 1626 2.3 19:37:56 10° NNW 19:41:38 69° W 19:42:02 62° SW
Terra 4.1 19:42:51 11° NE 19:42:51 11° NE 19:43:37 10° NNE
Okean 1-7 Rocket 3.8 19:37:29 10° N 19:41:50 55° ENE 19:41:50 55° ENE
MetOp-A 4.3 19:40:20 22° S 19:43:49 70° WSW 19:49:12 10° NNW
USA 186 3.6 19:42:34 21° SW 19:43:59 30° W 19:46:57 10° NNW
Cosmos 1455 Rocket 4.3 19:47:18 29° NE 19:47:18 29° NE 19:49:40 10° NNE
COSMOS 2406 3.2 19:40:16 10° NNW 19:45:58 84° WSW 19:47:55 43° SSE
Cosmos 1844 Rocket 4.0 19:41:57 10° WSW 19:47:10 40° NW 19:52:28 10° NNE
ISS -2.7 19:44:58 10° WNW 19:47:46 43° NNW 19:47:46 43° NNW
Cosmos 2278 Rocket 2.2 19:45:33 10° S 19:51:32 54° E 19:56:35 10° NE
Lacrosse 4 Rocket 2.0 19:49:34 10° NNW 19:52:52 45° NNE 19:52:52 45° NNE
Meteor 1-22 Rocket 4.4 19:49:48 10° SSW 19:55:44 81° W 20:01:52 10° N
Meteor 1-24 Rocket 4.1 19:52:53 10° NNW 19:58:23 62° W 20:01:37 26° SSW
Cosmos 909 Rocket 4.1 19:52:11 10° NNW 19:58:43 62° NE 19:59:55 52° E
Exosat Rocket 4.5 19:54:04 10° SW 19:59:07 47° WNW 20:04:01 10° NNE
Cosmos 2266 Rocket 4.2 19:54:47 10° N 20:00:33 48° ENE 20:00:33 48° ENE
SL-14 R/B 4.0 19:57:44 10° NNW 20:01:33 48° W 20:01:55 47° WSW
NOSS 3-4 (A) 3.4 19:56:22 10° SW 20:02:18 79° NW 20:08:44 10° NE
NOSS 3-4 (C) 3.4 19:56:28 10° SW 20:02:24 80° NW 20:08:50 10° NE
Meteor 2-19 Rocket 4.3 19:56:27 10° N 20:02:36 78° E 20:03:47 59° SSE
Resurs 01 Rocket 1.7 20:03:26 71° N 20:03:26 71° N 20:07:28 10° NNW
Cosmos 1833 Rocket 2.7 20:05:24 10° NNW 20:11:03 73° WSW 20:11:54 62° SSW
Cosmos 2251 Rocket 3.5 20:08:34 10° NNW 20:13:43 74° NE 20:13:43 74° NE
CENTAUR R/B 4.4 20:08:29 10° NW 20:15:43 35° WSW 20:22:00 15° S
ERS-1 Rocket 4.3 20:17:40 28° NNE 20:17:40 28° NNE 20:20:39 10° N
ARIANE 5 R/B 3.7 20:20:05 38° N 20:20:05 38° N 20:22:52 10° N
SPOT 3 Rocket 4.0 20:20:50 49° SW 20:21:42 55° W 20:26:46 10° NNW
ATLAS 2AS CENTAUR R/B 3.2 20:17:13 10° SW 20:25:11 72° NW 20:33:02 10° NE
ATLAS 3B R/B 2.9 20:21:46 10° NW 20:28:33 64° SW 20:29:50 54° S
SPOT 5 4.3 20:33:48 33° NNE 20:33:48 33° NNE 20:37:11 10° N
Meteor 1-21 Rocket 4.3 20:27:58 10° N 20:33:15 74° N 20:33:15 74° N
Cosmos 1655 Rocket 4.0 20:31:02 10° NNW 20:37:19 76° W 20:37:49 72° SW
Lacrosse 5 rocket 3.4 20:54:08 10° NW 20:56:20 28° NW 20:56:20 28° NW
Cosmos 2098 Rocket 4.5 20:55:09 10° NNW 21:01:36 50° W 21:01:45 50° W
Cosmos 2082 Rocket 3.1 20:58:40 10° NW 21:03:08 44° W 21:03:08 44° W
Terra 3.9 21:21:45 23° N 21:21:45 23° N 21:23:30 10° N
Cosmos 2278 Rocket 3.8 21:33:01 22° W 21:35:28 31° NW 21:40:27 10° NNE
ATLAS 2AS CENTAUR R/B 4.5 22:10:31 10° W 22:17:30 32° NNW 22:24:17 10° NE
CZ-4C R/B 4.4 22:45:17 22° NNE 22:45:17 22° NNE 22:48:03 10° NE
SL-16 R/B 4.4 23:50:37 24° NE 23:50:37 24° NE 23:54:09 10° N
